Voltar ao catálogo

CZ-6A DEB

AtivoPO
NORAD 60774·DEBRIS·🇨🇳 China

Lançado Aug 6, 2024 de Taiyuan Satellite Launch Center

Loading…

Próximas Passagens (próximas 24 horas)

TLE

AtualizadoSource: Space-Track

Época: Sep 14, 2026, 01:01 UTC

1 60774U 24140EZ  26257.04245926  .00104164  00000-0  32967-2 0  9994
2 60774  89.2936 286.5971 0045685 103.0129 257.6229 15.31331589113563

Acompanhe CZ-6A DEB em tempo real com AllMySat

Download on the App Store